Flag Weather past 2 weeks in Simi Valley, California, U.S.A.

Now
62 °F

Mostly cloudy.


Feels Like: 62 °F
Forecast: 53 / 64 °F
Wind: 13 mph from South

Location: Van Nuys Airport

Current Time: Nov 1, 2014 at 12:01:27 AM

Latest Report: Oct 31, 2014 at 11:02 PM


Visibility: 10 mi

Pressure: 29.83 "Hg

Humidity: 70%

Dew point: 52 °F

Location of Simi ValleyLocation

Historic Weather in Simi Valley — Graph

°F

Simi Valley temperature yesterday

Maximum temperature yesterday: 67 °F (at 11:51 AM)
Minimum temperature yesterday: 59 °F (at 6:51 AM)
Average temperature yesterday: 63 °F

Past Weeks' High & Low Weather Summary

 TemperatureHumidityPressure
High89 °F (Oct 22, 2:51 PM)96% (Oct 21, 7:51 AM)30.03 "Hg (Oct 21, 7:51 AM)
Low54 °F (Oct 28, 6:51 AM)8% (Oct 24, 1:51 PM)29.80 "Hg (Oct 18, 4:51 PM)
Average68 °F55%29.92 "Hg
* Reported Oct 16 11:51 PM — Oct 31 11:02 PM, Simi Valley, Weather by CustomWeather, © 2014

Note: Actual official high and low records may vary slightly from our data, if they occured in-between our weather recording intervals... More about our weather records

Advertising

Simi Valley weather history for previous 24 hours

 ConditionsComfort  
Time TempWeatherWind HumidityBarometerVisibility
11:02 PM
Oct 31
62 °FMostly cloudy.13 mph70%29.83 "Hg10 mi
9:51 PM62 °FMostly cloudy.7 mph73%29.81 "Hg10 mi
8:51 PM63 °FMostly cloudy.8 mph73%29.82 "Hg10 mi
7:51 PM63 °FMostly cloudy.10 mph75%29.83 "Hg10 mi
6:51 PM64 °FOvercast.8 mph73%29.83 "Hg10 mi
5:51 PM65 °FOvercast.9 mph70%29.84 "Hg10 mi
4:51 PM66 °FOvercast.8 mph63%29.83 "Hg10 mi
3:51 PM66 °FOvercast.7 mph59%29.85 "Hg10 mi
2:51 PM67 °FOvercast.6 mph57%29.86 "Hg10 mi
1:51 PM67 °FOvercast.6 mph59%29.87 "Hg10 mi
12:51 PM67 °FOvercast.3 mph61%29.90 "Hg10 mi
11:51 AM67 °FOvercast.6 mph61%29.93 "Hg10 mi
10:51 AM66 °FPartly sunny.5 mph65%29.95 "Hg10 mi
9:51 AM64 °FPartly sunny.3 mph73%29.96 "Hg10 mi
8:51 AM62 °FPartly sunny.No wind78%29.96 "Hg6 mi
7:51 AM59 °FFog.No wind87%29.95 "Hg6 mi
6:51 AM59 °FPassing clouds.3 mph84%29.94 "Hg7 mi
5:51 AM60 °FOvercast.No wind83%29.93 "Hg7 mi
4:51 AM60 °FOvercast.No wind83%29.93 "Hg6 mi
3:51 AM60 °FLow clouds.3 mph80%29.93 "Hg9 mi
2:51 AM60 °FLow clouds.No wind72%29.94 "Hg10 mi
1:51 AM60 °FLow clouds.No wind86%29.94 "Hg9 mi
12:51 AM61 °FClear.No wind87%29.94 "Hg9 mi
Weather by CustomWeather, © 2014

See weather overviewHow to use our weather pages